Wetterdaten: Woche 21.11.16 - 27.11.16 (KW47)
Datum Zeit Temp. Aussen Temp. o. S. +5cm Feuchte Auss BlattFeu 1 Luftdruck Regen Sonnenschein Regendauer Solar Windben Empfang
21.11.2016 00:00 11,2 C 11,4 C 9,0 C 90 % 0 lf 999,3 hPa 0,0 l/m 0,00 h 0,00 h 5 W/m 10,8 km/h (2 Bft) 95,44 %
21.11.2016 01:00 11,2 C 11,7 C 9,4 C 89 % 0 lf 999,0 hPa 0,0 l/m 0,00 h 0,00 h 5 W/m 13,2 km/h (3 Bft) 96,08 %
21.11.2016 02:00 11,6 C 12,1 C 9,9 C 86 % 0 lf 998,9 hPa 0,0 l/m 0,00 h 0,00 h 5 W/m 16,8 km/h (3 Bft) 94,52 %
21.11.2016 03:00 12,3 C 12,6 C 10,6 C 83 % 0 lf 999,1 hPa 0,0 l/m 0,00 h 0,20 h 5 W/m 18,4 km/h (3 Bft) 97,43 %
21.11.2016 04:00 12,5 C 12,8 C 10,6 C 82 % 0 lf 998,9 hPa 0,0 l/m 0,00 h 0,28 h 5 W/m 21,3 km/h (4 Bft) 94,02 %
21.11.2016 05:00 13,0 C 13,1 C 11,0 C 81 % 0 lf 998,7 hPa 0,0 l/m 0,00 h 0,00 h 5 W/m 22,1 km/h (4 Bft) 95,09 %
21.11.2016 06:00 12,7 C 12,8 C 10,6 C 84 % 0 lf 998,8 hPa 0,0 l/m 0,00 h 0,00 h 5 W/m 19,7 km/h (3 Bft) 98,03 %
21.11.2016 07:00 12,7 C 12,8 C 11,0 C 86 % 0 lf 998,6 hPa 0,0 l/m 0,00 h 0,00 h 5 W/m 20,2 km/h (4 Bft) 95,73 %
21.11.2016 08:00 13,0 C 13,2 C 11,4 C 87 % 0 lf 998,8 hPa 0,0 l/m 0,00 h 0,00 h 11 W/m 24,4 km/h (4 Bft) 94,30 %
21.11.2016 09:00 13,2 C 12,5 C 10,8 C 86 % 0 lf 999,1 hPa 0,2 l/m 0,00 h 0,80 h 24 W/m 30,2 km/h (5 Bft) 97,44 %
21.11.2016 10:00 12,6 C 11,2 C 10,0 C 88 % 0 lf 999,4 hPa 0,2 l/m 0,00 h 1,00 h 37 W/m 30,3 km/h (5 Bft) 95,43 %
21.11.2016 11:00 12,9 C 12,5 C 10,3 C 87 % 0 lf 999,2 hPa 0,0 l/m 0,00 h 0,70 h 36 W/m 30,8 km/h (5 Bft) 95,80 %
21.11.2016 12:00 13,3 C 13,3 C 11,4 C 83 % 0 lf 998,6 hPa 0,0 l/m 0,00 h 0,53 h 74 W/m 35,4 km/h (5 Bft) 96,25 %
21.11.2016 13:00 14,0 C 14,5 C 12,9 C 77 % 0 lf 998,3 hPa 0,0 l/m 0,00 h 0,03 h 103 W/m 33,0 km/h (5 Bft) 94,09 %
21.11.2016 14:00 13,8 C 13,9 C 12,3 C 78 % 0 lf 998,0 hPa 0,0 l/m 0,00 h 0,47 h 63 W/m 21,7 km/h (4 Bft) 97,58 %
21.11.2016 15:00 13,8 C 14,2 C 12,3 C 80 % 0 lf 997,5 hPa 0,0 l/m 0,07 h 0,13 h 55 W/m 28,7 km/h (4 Bft) 96,44 %
21.11.2016 16:00 13,7 C 13,8 C 11,8 C 82 % 0 lf 997,3 hPa 0,0 l/m 0,00 h 0,00 h 13 W/m 27,3 km/h (4 Bft) 93,23 %
21.11.2016 17:00 13,5 C 13,7 C 11,7 C 82 % 0 lf 997,5 hPa 0,0 l/m 0,00 h 0,00 h 5 W/m 25,0 km/h (4 Bft) 97,43 %
21.11.2016 18:00 13,3 C 12,5 C 10,7 C 83 % 0 lf 998,2 hPa 0,2 l/m 0,00 h 0,70 h 5 W/m 21,5 km/h (4 Bft) 98,38 %
21.11.2016 19:00 12,6 C 11,1 C 9,7 C 88 % 11 lf 999,5 hPa 0,6 l/m 0,00 h 0,90 h 5 W/m 16,7 km/h (3 Bft) 92,60 %
21.11.2016 20:00 11,7 C 10,7 C 9,2 C 92 % 1 lf 999,4 hPa 0,4 l/m 0,00 h 0,93 h 5 W/m 14,6 km/h (3 Bft) 96,08 %
21.11.2016 21:00 11,5 C 10,6 C 9,0 C 92 % 0 lf 999,4 hPa 0,0 l/m 0,00 h 0,53 h 5 W/m 26,1 km/h (4 Bft) 97,16 %
21.11.2016 22:00 11,7 C 10,7 C 9,4 C 92 % 0 lf 1000,3 hPa 0,8 l/m 0,00 h 1,00 h 5 W/m 27,5 km/h (4 Bft) 94,65 %
21.11.2016 23:00 11,7 C 10,8 C 9,4 C 93 % 1 lf 1001,2 hPa 0,2 l/m 0,00 h 0,97 h 5 W/m 24,0 km/h (4 Bft) 97,15 %
22.11.2016 00:00 11,6 C 10,9 C 9,4 C 93 % 0 lf 1001,3 hPa 0,0 l/m 0,00 h 0,50 h 5 W/m 25,5 km/h (4 Bft) 94,27 %
22.11.2016 01:00 12,0 C 11,8 C 9,0 C 88 % 0 lf 1001,5 hPa 0,0 l/m 0,00 h 0,00 h 5 W/m 24,7 km/h (4 Bft) 95,25 %
22.11.2016 02:00 12,1 C 12,2 C 8,9 C 85 % 0 lf 1001,7 hPa 0,0 l/m 0,00 h 0,00 h 5 W/m 21,2 km/h (4 Bft) 96,72 %
22.11.2016 03:00 12,0 C 12,2 C 8,3 C 82 % 0 lf 1002,4 hPa 0,0 l/m 0,00 h 0,00 h 5 W/m 18,5 km/h (3 Bft) 96,58 %
22.11.2016 04:00 11,9 C 12,1 C 9,4 C 81 % 0 lf 1002,9 hPa 0,0 l/m 0,00 h 0,00 h 5 W/m 20,1 km/h (4 Bft) 93,59 %
22.11.2016 05:00 11,7 C 11,7 C 9,5 C 81 % 0 lf 1004,0 hPa 0,0 l/m 0,00 h 0,00 h 5 W/m 17,6 km/h (3 Bft) 97,15 %
22.11.2016 06:00 11,4 C 11,4 C 9,2 C 82 % 0 lf 1004,9 hPa 0,0 l/m 0,00 h 0,00 h 5 W/m 16,6 km/h (3 Bft) 96,10 %
22.11.2016 07:00 11,0 C 11,1 C 8,9 C 83 % 0 lf 1005,4 hPa 0,0 l/m 0,00 h 0,00 h 5 W/m 14,6 km/h (3 Bft) 96,02 %
22.11.2016 08:00 10,7 C 10,6 C 8,3 C 84 % 0 lf 1006,5 hPa 0,0 l/m 0,00 h 0,00 h 14 W/m 15,8 km/h (3 Bft) 93,67 %
22.11.2016 09:00 10,6 C 11,3 C 9,2 C 84 % 0 lf 1007,3 hPa 0,0 l/m 0,10 h 0,00 h 61 W/m 16,5 km/h (3 Bft) 97,37 %
22.11.2016 10:00 11,7 C 12,5 C 10,9 C 79 % 0 lf 1008,3 hPa 0,0 l/m 0,00 h 0,00 h 85 W/m 19,0 km/h (3 Bft) 95,01 %
22.11.2016 11:00 12,0 C 12,6 C 11,1 C 78 % 0 lf 1009,0 hPa 0,0 l/m 0,00 h 0,00 h 84 W/m 17,8 km/h (3 Bft) 96,79 %
22.11.2016 12:00 12,5 C 13,2 C 11,7 C 76 % 0 lf 1009,2 hPa 0,0 l/m 0,00 h 0,00 h 97 W/m 18,7 km/h (3 Bft) 94,94 %
22.11.2016 13:00 12,7 C 13,4 C 11,9 C 76 % 0 lf 1009,2 hPa 0,0 l/m 0,07 h 0,00 h 100 W/m 15,9 km/h (3 Bft) 96,72 %
22.11.2016 14:00 13,1 C 15,3 C 11,9 C 76 % 0 lf 1009,2 hPa 0,0 l/m 0,67 h 0,00 h 142 W/m 15,1 km/h (3 Bft) 95,73 %
22.11.2016 15:00 12,9 C 13,0 C 10,6 C 76 % 0 lf 1010,0 hPa 0,0 l/m 0,17 h 0,00 h 55 W/m 13,3 km/h (3 Bft) 94,86 %
22.11.2016 16:00 12,1 C 11,9 C 9,8 C 79 % 0 lf 1010,6 hPa 0,0 l/m 0,00 h 0,00 h 8 W/m 9,8 km/h (2 Bft) 96,31 %
22.11.2016 17:00 11,4 C 11,2 C 9,0 C 83 % 0 lf 1011,0 hPa 0,0 l/m 0,00 h 0,00 h 2 W/m 8,7 km/h (2 Bft) 96,51 %
22.11.2016 18:00 11,0 C 11,1 C 9,2 C 85 % 0 lf 1011,6 hPa 0,0 l/m 0,00 h 0,20 h 2 W/m 11,6 km/h (2 Bft) 95,46 %
22.11.2016 19:00 10,8 C 10,5 C 8,7 C 87 % 0 lf 1012,8 hPa 0,0 l/m 0,00 h 0,27 h 2 W/m 11,4 km/h (2 Bft) 94,88 %
22.11.2016 20:00 10,7 C 10,6 C 8,9 C 89 % 0 lf 1013,4 hPa 0,0 l/m 0,00 h 0,13 h 2 W/m 12,0 km/h (2 Bft) 95,38 %
22.11.2016 21:00 10,4 C 10,6 C 8,9 C 91 % 0 lf 1013,5 hPa 0,0 l/m 0,00 h 0,00 h 2 W/m 7,9 km/h (2 Bft) 96,37 %
22.11.2016 22:00 10,3 C 10,2 C 8,8 C 92 % 0 lf 1014,0 hPa 0,0 l/m 0,00 h 0,00 h 2 W/m 8,7 km/h (2 Bft) 96,79 %
22.11.2016 23:00 10,1 C 10,0 C 8,3 C 93 % 0 lf 1014,1 hPa 0,0 l/m 0,00 h 0,00 h 1 W/m 7,3 km/h (2 Bft) 94,24 %
23.11.2016 00:00 10,0 C 9,9 C 8,1 C 94 % 0 lf 1014,1 hPa 0,0 l/m 0,00 h 0,00 h 0 W/m 5,1 km/h (1 Bft) 95,61 %
23.11.2016 01:00 9,9 C 10,0 C 8,2 C 94 % 0 lf 1014,3 hPa 0,0 l/m 0,00 h 0,00 h 1 W/m 4,7 km/h (1 Bft) 96,94 %
23.11.2016 02:00 9,9 C 10,0 C 8,3 C 95 % 0 lf 1014,9 hPa 0,0 l/m 0,00 h 0,00 h 2 W/m 4,6 km/h (1 Bft) 96,30 %
23.11.2016 03:00 9,8 C 10,0 C 8,3 C 96 % 0 lf 1014,6 hPa 0,0 l/m 0,00 h 0,00 h 1 W/m 3,2 km/h (1 Bft) 93,88 %
23.11.2016 04:00 9,7 C 9,5 C 8,3 C 96 % 0 lf 1014,8 hPa 0,0 l/m 0,00 h 0,00 h 3 W/m 3,1 km/h (1 Bft) 96,33 %
23.11.2016 05:00 9,6 C 9,4 C 7,8 C 96 % 0 lf 1014,8 hPa 0,0 l/m 0,00 h 0,00 h 0 W/m 5,7 km/h (1 Bft) 97,22 %
23.11.2016 06:00 9,2 C 8,6 C 6,4 C 96 % 2 lf 1014,9 hPa 0,0 l/m 0,00 h 0,00 h 0 W/m 3,9 km/h (1 Bft) 95,48 %
23.11.2016 07:00 8,6 C 8,0 C 6,2 C 96 % 3 lf 1015,3 hPa 0,0 l/m 0,00 h 0,00 h 4 W/m 1,7 km/h (1 Bft) 93,17 %
23.11.2016 08:00 8,6 C 8,6 C 7,0 C 96 % 5 lf 1015,7 hPa 0,0 l/m 0,00 h 0,00 h 19 W/m 9,4 km/h (2 Bft) 98,57 %
23.11.2016 09:00 8,9 C 9,7 C 8,0 C 97 % 1 lf 1015,8 hPa 0,0 l/m 0,00 h 0,00 h 61 W/m 9,7 km/h (2 Bft) 94,58 %
23.11.2016 10:00 9,3 C 10,5 C 9,0 C 97 % 0 lf 1016,1 hPa 0,0 l/m 0,03 h 0,37 h 89 W/m 13,1 km/h (3 Bft) 96,08 %
23.11.2016 11:00 10,1 C 11,8 C 10,5 C 96 % 0 lf 1016,0 hPa 0,0 l/m 0,10 h 0,03 h 129 W/m 13,6 km/h (3 Bft) 95,60 %
23.11.2016 12:00 11,2 C 12,4 C 11,2 C 90 % 0 lf 1016,0 hPa 0,0 l/m 0,07 h 0,00 h 114 W/m 15,6 km/h (3 Bft) 96,14 %
23.11.2016 13:00 11,8 C 12,8 C 11,6 C 87 % 0 lf 1015,8 hPa 0,0 l/m 0,00 h 0,00 h 104 W/m 11,9 km/h (2 Bft) 95,59 %
23.11.2016 14:00 12,1 C 12,9 C 11,5 C 86 % 0 lf 1015,8 hPa 0,0 l/m 0,00 h 0,00 h 84 W/m 11,2 km/h (2 Bft) 96,01 %
23.11.2016 15:00 12,3 C 12,7 C 10,6 C 87 % 0 lf 1016,1 hPa 0,0 l/m 0,00 h 0,00 h 44 W/m 6,4 km/h (2 Bft) 94,58 %
23.11.2016 16:00 12,0 C 11,4 C 9,1 C 88 % 0 lf 1016,5 hPa 0,0 l/m 0,00 h 0,00 h 10 W/m 6,9 km/h (2 Bft) 97,15 %
23.11.2016 17:00 11,1 C 10,0 C 7,4 C 89 % 0 lf 1016,6 hPa 0,0 l/m 0,00 h 0,00 h 3 W/m 4,6 km/h (1 Bft) 95,72 %
23.11.2016 18:00 10,1 C 8,9 C 6,7 C 90 % 0 lf 1016,9 hPa 0,0 l/m 0,00 h 0,00 h 2 W/m 5,7 km/h (1 Bft) 93,44 %
23.11.2016 19:00 9,3 C 8,2 C 6,3 C 91 % 1 lf 1017,1 hPa 0,0 l/m 0,00 h 0,00 h 2 W/m 5,6 km/h (1 Bft) 96,23 %
23.11.2016 20:00 9,2 C 8,9 C 7,4 C 94 % 0 lf 1017,4 hPa 0,0 l/m 0,00 h 0,00 h 2 W/m 8,6 km/h (2 Bft) 96,37 %
23.11.2016 21:00 9,3 C 9,3 C 7,8 C 94 % 0 lf 1017,9 hPa 0,0 l/m 0,00 h 0,00 h 2 W/m 11,7 km/h (2 Bft) 94,37 %
23.11.2016 22:00 9,3 C 9,1 C 7,6 C 94 % 0 lf 1017,8 hPa 0,0 l/m 0,00 h 0,00 h 2 W/m 8,7 km/h (2 Bft) 95,59 %
23.11.2016 23:00 9,3 C 9,4 C 7,8 C 94 % 0 lf 1017,9 hPa 0,0 l/m 0,00 h 0,00 h 2 W/m 8,2 km/h (2 Bft) 96,30 %
24.11.2016 00:00 9,4 C 9,4 C 8,1 C 94 % 0 lf 1018,0 hPa 0,0 l/m 0,00 h 0,00 h 2 W/m 11,6 km/h (2 Bft) 95,08 %
24.11.2016 01:00 9,5 C 9,5 C 8,3 C 93 % 0 lf 1018,2 hPa 0,0 l/m 0,00 h 0,00 h 2 W/m 17,3 km/h (3 Bft) 97,58 %
24.11.2016 02:00 9,6 C 9,5 C 8,3 C 92 % 0 lf 1018,2 hPa 0,0 l/m 0,00 h 0,00 h 2 W/m 17,9 km/h (3 Bft) 94,01 %
24.11.2016 03:00 9,7 C 10,0 C 8,4 C 91 % 0 lf 1018,4 hPa 0,0 l/m 0,00 h 0,00 h 2 W/m 20,3 km/h (4 Bft) 96,30 %
24.11.2016 04:00 9,9 C 10,0 C 8,4 C 90 % 2 lf 1018,6 hPa 0,0 l/m 0,00 h 0,27 h 2 W/m 18,7 km/h (3 Bft) 97,12 %
24.11.2016 05:00 9,8 C 10,0 C 8,3 C 91 % 1 lf 1019,0 hPa 0,0 l/m 0,00 h 0,13 h 2 W/m 23,8 km/h (4 Bft) 95,37 %
24.11.2016 06:00 9,6 C 9,5 C 8,1 C 91 % 2 lf 1019,2 hPa 0,0 l/m 0,00 h 0,17 h 3 W/m 23,3 km/h (4 Bft) 94,11 %
24.11.2016 07:00 9,4 C 9,4 C 8,2 C 90 % 0 lf 1018,9 hPa 0,0 l/m 0,00 h 0,00 h 2 W/m 25,3 km/h (4 Bft) 98,57 %
24.11.2016 08:00 9,3 C 9,3 C 7,7 C 89 % 2 lf 1019,6 hPa 0,0 l/m 0,00 h 0,30 h 12 W/m 23,9 km/h (4 Bft) 93,73 %
24.11.2016 09:00 9,1 C 9,4 C 7,7 C 91 % 7 lf 1019,8 hPa 0,0 l/m 0,00 h 0,33 h 47 W/m 21,5 km/h (4 Bft) 97,47 %
24.11.2016 10:00 9,3 C 10,0 C 8,7 C 90 % 0 lf 1020,0 hPa 0,0 l/m 0,00 h 0,03 h 90 W/m 29,4 km/h (5 Bft) 95,30 %
24.11.2016 11:00 9,5 C 10,6 C 9,0 C 88 % 0 lf 1019,9 hPa 0,0 l/m 0,00 h 0,00 h 104 W/m 29,1 km/h (5 Bft) 94,26 %
24.11.2016 12:00 10,2 C 12,9 C 10,0 C 86 % 0 lf 1019,8 hPa 0,0 l/m 0,90 h 0,00 h 231 W/m 31,9 km/h (5 Bft) 96,86 %
24.11.2016 13:00 10,0 C 11,0 C 8,8 C 85 % 0 lf 1019,6 hPa 0,0 l/m 0,10 h 0,00 h 110 W/m 30,3 km/h (5 Bft) 96,80 %
24.11.2016 14:00 9,7 C 11,4 C 8,7 C 87 % 0 lf 1019,5 hPa 0,0 l/m 0,80 h 0,00 h 123 W/m 32,2 km/h (5 Bft) 93,02 %
24.11.2016 15:00 9,3 C 9,8 C 7,9 C 87 % 0 lf 1019,4 hPa 0,0 l/m 0,43 h 0,00 h 58 W/m 28,7 km/h (4 Bft) 98,08 %
24.11.2016 16:00 8,5 C 8,2 C 6,9 C 89 % 0 lf 1019,4 hPa 0,0 l/m 0,00 h 0,00 h 11 W/m 28,5 km/h (4 Bft) 96,09 %
24.11.2016 17:00 7,9 C 7,8 C 6,2 C 89 % 0 lf 1019,8 hPa 0,0 l/m 0,00 h 0,00 h 0 W/m 27,1 km/h (4 Bft) 93,02 %
24.11.2016 18:00 7,6 C 7,3 C 5,8 C 89 % 0 lf 1020,5 hPa 0,0 l/m 0,00 h 0,00 h 0 W/m 26,3 km/h (4 Bft) 96,65 %
24.11.2016 19:00 7,0 C 6,7 C 5,1 C 89 % 0 lf 1020,9 hPa 0,0 l/m 0,00 h 0,00 h 0 W/m 25,4 km/h (4 Bft) 97,72 %
24.11.2016 20:00 6,4 C 6,1 C 4,5 C 90 % 0 lf 1020,7 hPa 0,0 l/m 0,00 h 0,00 h 0 W/m 22,1 km/h (4 Bft) 94,45 %
24.11.2016 21:00 5,9 C 5,6 C 4,4 C 91 % 0 lf 1020,7 hPa 0,0 l/m 0,00 h 0,00 h 0 W/m 22,4 km/h (4 Bft) 95,89 %
24.11.2016 22:00 5,6 C 5,6 C 3,9 C 91 % 0 lf 1020,8 hPa 0,0 l/m 0,00 h 0,00 h 0 W/m 25,1 km/h (4 Bft) 94,46 %
24.11.2016 23:00 5,3 C 5,1 C 3,7 C 90 % 0 lf 1020,6 hPa 0,0 l/m 0,00 h 0,00 h 0 W/m 25,0 km/h (4 Bft) 96,30 %
25.11.2016 00:00 5,0 C 5,0 C 3,3 C 90 % 0 lf 1020,3 hPa 0,0 l/m 0,00 h 0,00 h 2 W/m 22,4 km/h (4 Bft) 97,10 %
25.11.2016 01:00 4,7 C 4,6 C 3,3 C 91 % 0 lf 1020,4 hPa 0,0 l/m 0,00 h 0,00 h 2 W/m 23,4 km/h (4 Bft) 94,90 %
25.11.2016 02:00 4,7 C 4,5 C 3,0 C 92 % 0 lf 1020,1 hPa 0,0 l/m 0,00 h 0,00 h 2 W/m 22,2 km/h (4 Bft) 94,17 %
25.11.2016 03:00 4,3 C 4,1 C 2,8 C 92 % 0 lf 1019,9 hPa 0,0 l/m 0,00 h 0,00 h 0 W/m 22,6 km/h (4 Bft) 96,94 %
25.11.2016 04:00 3,9 C 3,7 C 2,2 C 92 % 0 lf 1019,5 hPa 0,0 l/m 0,00 h 0,00 h 4 W/m 18,3 km/h (3 Bft) 97,13 %
25.11.2016 05:00 3,4 C 3,3 C 1,7 C 93 % 0 lf 1019,5 hPa 0,0 l/m 0,00 h 0,00 h 5 W/m 21,5 km/h (4 Bft) 94,82 %
25.11.2016 06:00 3,1 C 3,0 C 1,6 C 93 % 0 lf 1019,6 hPa 0,0 l/m 0,00 h 0,00 h 5 W/m 22,6 km/h (4 Bft) 94,47 %
25.11.2016 07:00 2,7 C 2,4 C 1,1 C 93 % 0 lf 1019,3 hPa 0,0 l/m 0,00 h 0,00 h 5 W/m 19,7 km/h (3 Bft) 94,81 %
25.11.2016 08:00 2,6 C 2,8 C 1,1 C 93 % 0 lf 1019,5 hPa 0,0 l/m 0,13 h 0,00 h 22 W/m 25,8 km/h (4 Bft) 91,38 %
25.11.2016 09:00 2,8 C 3,5 C 1,9 C 92 % 0 lf 1019,9 hPa 0,0 l/m 1,00 h 0,00 h 100 W/m 22,0 km/h (4 Bft) 90,99 %
25.11.2016 10:00 4,1 C 7,8 C 3,1 C 88 % 0 lf 1019,9 hPa 0,0 l/m 1,00 h 0,00 h 204 W/m 22,0 km/h (4 Bft) 95,87 %
25.11.2016 11:00 6,2 C 12,3 C 4,5 C 79 % 0 lf 1020,0 hPa 0,0 l/m 1,00 h 0,00 h 511 W/m 25,2 km/h (4 Bft) 96,44 %
25.11.2016 12:00 7,4 C 11,0 C 5,9 C 72 % 0 lf 1019,8 hPa 0,0 l/m 0,97 h 0,00 h 285 W/m 23,5 km/h (4 Bft) 93,82 %
25.11.2016 13:00 8,5 C 13,1 C 6,8 C 68 % 0 lf 1019,4 hPa 0,0 l/m 1,00 h 0,00 h 240 W/m 23,5 km/h (4 Bft) 95,44 %
25.11.2016 14:00 8,7 C 12,6 C 6,8 C 66 % 0 lf 1019,0 hPa 0,0 l/m 1,00 h 0,00 h 155 W/m 22,7 km/h (4 Bft) 97,15 %
25.11.2016 15:00 8,0 C 8,4 C 5,6 C 68 % 0 lf 1019,0 hPa 0,0 l/m 0,40 h 0,00 h 60 W/m 19,9 km/h (4 Bft) 95,73 %
25.11.2016 16:00 7,1 C 6,8 C 4,3 C 69 % 0 lf 1019,1 hPa 0,0 l/m 0,37 h 0,00 h 16 W/m 19,4 km/h (3 Bft) 96,49 %
25.11.2016 17:00 6,1 C 5,4 C 2,6 C 70 % 0 lf 1019,4 hPa 0,0 l/m 0,00 h 0,00 h 5 W/m 14,4 km/h (3 Bft) 95,59 %
25.11.2016 18:00 5,3 C 5,4 C 2,8 C 71 % 0 lf 1019,8 hPa 0,0 l/m 0,00 h 0,00 h 5 W/m 19,3 km/h (3 Bft) 94,38 %
25.11.2016 19:00 5,0 C 4,9 C 2,4 C 72 % 0 lf 1020,0 hPa 0,0 l/m 0,00 h 0,00 h 5 W/m 18,8 km/h (3 Bft) 96,09 %
25.11.2016 20:00 4,5 C 4,0 C 1,7 C 74 % 0 lf 1020,1 hPa 0,0 l/m 0,00 h 0,00 h 5 W/m 13,6 km/h (3 Bft) 98,14 %
25.11.2016 21:00 3,4 C 3,0 C 0,8 C 78 % 0 lf 1020,2 hPa 0,0 l/m 0,00 h 0,00 h 5 W/m 13,0 km/h (3 Bft) 94,51 %
25.11.2016 22:00 3,5 C 4,3 C 2,8 C 83 % 0 lf 1020,3 hPa 0,0 l/m 0,00 h 0,00 h 5 W/m 11,1 km/h (2 Bft) 94,54 %
25.11.2016 23:00 4,2 C 4,4 C 3,3 C 82 % 0 lf 1020,2 hPa 0,0 l/m 0,00 h 0,00 h 5 W/m 13,4 km/h (3 Bft) 96,90 %
26.11.2016 00:00 4,4 C 4,8 C 3,3 C 82 % 0 lf 1020,1 hPa 0,0 l/m 0,00 h 0,00 h 5 W/m 11,9 km/h (2 Bft) 92,12 %
26.11.2016 01:00 4,6 C 5,0 C 3,4 C 82 % 0 lf 1020,0 hPa 0,0 l/m 0,00 h 0,00 h 5 W/m 7,1 km/h (2 Bft) 96,23 %
26.11.2016 02:00 4,7 C 4,8 C 3,3 C 82 % 0 lf 1020,0 hPa 0,0 l/m 0,00 h 0,00 h 5 W/m 5,1 km/h (1 Bft) 96,22 %
26.11.2016 03:00 4,3 C 4,3 C 3,1 C 84 % 0 lf 1019,9 hPa 0,0 l/m 0,00 h 0,00 h 5 W/m 7,2 km/h (2 Bft) 93,03 %
26.11.2016 04:00 3,8 C 3,9 C 2,8 C 85 % 0 lf 1019,6 hPa 0,0 l/m 0,00 h 0,00 h 5 W/m 6,4 km/h (2 Bft) 98,15 %
26.11.2016 05:00 3,5 C 3,9 C 2,8 C 86 % 0 lf 1019,4 hPa 0,0 l/m 0,00 h 0,00 h 5 W/m 4,8 km/h (1 Bft) 96,65 %
26.11.2016 06:00 3,4 C 3,4 C 2,3 C 88 % 0 lf 1019,4 hPa 0,0 l/m 0,00 h 0,00 h 5 W/m 6,7 km/h (2 Bft) 92,42 %
26.11.2016 07:00 2,9 C 2,9 C 2,0 C 88 % 0 lf 1019,4 hPa 0,0 l/m 0,00 h 0,00 h 5 W/m 7,0 km/h (2 Bft) 96,95 %
26.11.2016 08:00 2,5 C 2,8 C 1,7 C 89 % 0 lf 1019,5 hPa 0,0 l/m 0,00 h 0,00 h 12 W/m 7,1 km/h (2 Bft) 96,51 %
26.11.2016 09:00 2,3 C 3,0 C 1,9 C 89 % 0 lf 1019,5 hPa 0,0 l/m 0,00 h 0,00 h 38 W/m 6,9 km/h (2 Bft) 95,52 %
26.11.2016 10:00 2,6 C 3,7 C 2,8 C 90 % 0 lf 1019,5 hPa 0,0 l/m 0,00 h 0,00 h 66 W/m 6,2 km/h (2 Bft) 95,09 %
26.11.2016 11:00 3,4 C 5,2 C 4,2 C 90 % 0 lf 1019,1 hPa 0,0 l/m 0,00 h 0,00 h 105 W/m 5,7 km/h (1 Bft) 94,66 %
26.11.2016 12:00 4,6 C 7,1 C 5,5 C 90 % 0 lf 1018,5 hPa 0,0 l/m 0,37 h 0,00 h 140 W/m 7,2 km/h (2 Bft) 96,25 %
26.11.2016 13:00 6,1 C 9,6 C 7,2 C 88 % 0 lf 1018,3 hPa 0,0 l/m 0,97 h 0,00 h 185 W/m 7,2 km/h (2 Bft) 97,87 %
26.11.2016 14:00 7,2 C 9,2 C 7,3 C 86 % 0 lf 1017,8 hPa 0,0 l/m 0,70 h 0,00 h 117 W/m 7,4 km/h (2 Bft) 93,37 %
26.11.2016 15:00 7,6 C 8,3 C 6,4 C 85 % 0 lf 1017,7 hPa 0,0 l/m 1,00 h 0,00 h 76 W/m 8,6 km/h (2 Bft) 96,73 %
26.11.2016 16:00 6,4 C 6,0 C 4,5 C 85 % 0 lf 1017,8 hPa 0,0 l/m 0,37 h 0,00 h 20 W/m 9,8 km/h (2 Bft) 97,32 %
26.11.2016 17:00 5,3 C 4,5 C 3,2 C 87 % 0 lf 1018,0 hPa 0,0 l/m 0,00 h 0,00 h 5 W/m 4,4 km/h (1 Bft) 95,06 %
26.11.2016 18:00 4,5 C 3,6 C 2,3 C 88 % 0 lf 1018,2 hPa 0,0 l/m 0,00 h 0,00 h 5 W/m 4,2 km/h (1 Bft) 94,38 %
26.11.2016 19:00 3,5 C 2,7 C 1,4 C 90 % 1 lf 1018,4 hPa 0,0 l/m 0,00 h 0,00 h 5 W/m 6,3 km/h (2 Bft) 96,78 %
26.11.2016 20:00 2,4 C 1,1 C 0,1 C 91 % 2 lf 1018,4 hPa 0,0 l/m 0,00 h 0,00 h 5 W/m 1,9 km/h (1 Bft) 96,23 %
26.11.2016 21:00 1,4 C -0,3 C -1,0 C 91 % 8 lf 1018,5 hPa 0,0 l/m 0,00 h 0,00 h 4 W/m 1,7 km/h (1 Bft) 96,34 %
26.11.2016 22:00 0,7 C -1,0 C -1,7 C 91 % 15 lf 1018,6 hPa 0,0 l/m 0,00 h 0,00 h 5 W/m 1,2 km/h (1 Bft) 95,50 %
26.11.2016 23:00 0,1 C -1,6 C -2,1 C 92 % 15 lf 1018,7 hPa 0,0 l/m 0,00 h 0,00 h 4 W/m 1,2 km/h (1 Bft) 95,78 %
27.11.2016 00:00 -0,3 C -1,1 C -2,1 C 92 % 15 lf 1018,7 hPa 0,0 l/m 0,00 h 0,00 h 0 W/m 5,9 km/h (2 Bft) 94,22 %
27.11.2016 01:00 -0,1 C -0,2 C -1,1 C 94 % 15 lf 1018,5 hPa 0,0 l/m 0,00 h 0,00 h 0 W/m 7,4 km/h (2 Bft) 96,87 %
27.11.2016 02:00 0,8 C 1,2 C 0,4 C 95 % 15 lf 1018,5 hPa 0,0 l/m 0,00 h 0,00 h 5 W/m 7,3 km/h (2 Bft) 97,53 %
27.11.2016 03:00 1,6 C 2,0 C 1,4 C 96 % 10 lf 1018,5 hPa 0,0 l/m 0,00 h 0,00 h 5 W/m 8,2 km/h (2 Bft) 92,97 %
27.11.2016 04:00 2,3 C 2,8 C 1,7 C 96 % 10 lf 1018,6 hPa 0,0 l/m 0,00 h 0,00 h 5 W/m 5,7 km/h (1 Bft) 96,93 %
27.11.2016 05:00 2,7 C 2,8 C 1,7 C 96 % 15 lf 1018,7 hPa 0,4 l/m 0,00 h 0,40 h 5 W/m 6,4 km/h (2 Bft) 95,80 %
27.11.2016 06:00 3,0 C 3,2 C 2,2 C 97 % 15 lf 1018,9 hPa 0,0 l/m 0,00 h 0,07 h 5 W/m 5,7 km/h (1 Bft) 95,99 %
27.11.2016 07:00 3,5 C 3,5 C 2,8 C 97 % 15 lf 1019,2 hPa 0,0 l/m 0,00 h 0,00 h 5 W/m 5,5 km/h (1 Bft) 96,01 %
27.11.2016 08:00 3,6 C 3,7 C 2,6 C 97 % 15 lf 1019,6 hPa 0,2 l/m 0,00 h 0,00 h 11 W/m 5,3 km/h (1 Bft) 94,95 %
27.11.2016 09:00 3,8 C 4,2 C 3,1 C 97 % 15 lf 1020,3 hPa 0,0 l/m 0,00 h 0,00 h 31 W/m 3,7 km/h (1 Bft) 96,03 %
27.11.2016 10:00 4,5 C 5,6 C 4,4 C 98 % 15 lf 1020,8 hPa 0,0 l/m 0,00 h 0,00 h 77 W/m 6,0 km/h (2 Bft) 96,14 %
27.11.2016 11:00 5,4 C 9,2 C 5,6 C 98 % 15 lf 1020,9 hPa 0,0 l/m 0,80 h 0,00 h 189 W/m 7,9 km/h (2 Bft) 97,72 %
27.11.2016 12:00 6,7 C 10,9 C 6,2 C 98 % 1 lf 1020,6 hPa 0,0 l/m 0,97 h 0,00 h 322 W/m 12,1 km/h (2 Bft) 93,68 %
27.11.2016 13:00 7,8 C 11,2 C 7,1 C 92 % 0 lf 1020,3 hPa 0,0 l/m 0,70 h 0,00 h 182 W/m 12,6 km/h (3 Bft) 96,18 %
27.11.2016 14:00 8,2 C 9,9 C 7,0 C 85 % 0 lf 1020,1 hPa 0,0 l/m 0,33 h 0,10 h 105 W/m 10,7 km/h (2 Bft) 96,94 %
27.11.2016 15:00 8,2 C 8,7 C 6,7 C 85 % 6 lf 1020,4 hPa 0,0 l/m 0,13 h 0,37 h 46 W/m 8,7 km/h (2 Bft) 93,67 %
27.11.2016 16:00 7,7 C 7,3 C 5,3 C 86 % 11 lf 1020,7 hPa 0,0 l/m 0,00 h 0,33 h 10 W/m 10,9 km/h (2 Bft) 95,87 %
27.11.2016 17:00 7,2 C 6,5 C 4,3 C 86 % 1 lf 1021,0 hPa 0,0 l/m 0,00 h 0,10 h 0 W/m 4,6 km/h (1 Bft) 98,65 %
27.11.2016 18:00 6,7 C 6,2 C 4,3 C 89 % 15 lf 1021,3 hPa 0,0 l/m 0,00 h 0,07 h 0 W/m 6,2 km/h (2 Bft) 93,87 %
27.11.2016 19:00 6,3 C 5,7 C 3,9 C 90 % 15 lf 1021,8 hPa 0,0 l/m 0,00 h 0,03 h 0 W/m 0,0 km/h (0 Bft) 95,64 %
27.11.2016 20:00 5,6 C 3,9 C 1,9 C 90 % 11 lf 1022,3 hPa 0,0 l/m 0,00 h 0,00 h 0 W/m 2,2 km/h (1 Bft) 95,86 %
27.11.2016 21:00 4,2 C 2,2 C 0,3 C 90 % 15 lf 1022,7 hPa 0,0 l/m 0,00 h 0,00 h 5 W/m 2,7 km/h (1 Bft) 95,23 %
27.11.2016 22:00 2,7 C 0,4 C -0,8 C 90 % 15 lf 1023,1 hPa 0,0 l/m 0,00 h 0,00 h 5 W/m 2,5 km/h (1 Bft) 96,97 %
27.11.2016 23:00 1,6 C 0,2 C -1,2 C 91 % 15 lf 1023,6 hPa 0,0 l/m 0,00 h 0,00 h 5 W/m 6,6 km/h (2 Bft) 96,64 %
Min-Datum _ 27.11.16 26.11.16 26.11.16 25.11.16 21.11.16 21.11.16 - - - - 23.11.16 26.11.16
_ Min-Zeit 00:16 23:08 23:14 14:22 00:00 16:08 - - - - 00:32 00:02
Minimum _ -0,4 C -1,7 C -2,2 C 65 % 0 lf 997,2 hPa - - - - 0,0 km/h (0 Bft) 5,26 %
Max-Datum _ 21.11.16 22.11.16 21.11.16 27.11.16 21.11.16 27.11.16 21.11.16 21.11.16 21.11.16 25.11.16 24.11.16 21.11.16
_ Max-Zeit 13:34 14:08 13:28 10:20 19:10 23:58 22:00 15:44 03:04 11:44 12:34 01:20
Maximum _ 14,2 C 18,9 C 13,3 C 98 % 15 lf 1023,8 hPa 0,8 l/m 0,03 h 0,03 h 848 W/m 48,1 km/h
O-NO (6 Bft)
100,00 %
Durchschnitt _ 8,0 C 8,2 C 6,4 C 88 % 2 lf 1014,5 hPa #3,2 l/m #16:42 h #13:25 h 41 W/m 14,7 km/h (3 Bft) 95,69 %
© 2016 W. Hausmann